Location: Tel Aviv
(32.0670°N, 34.7670°E)
Time: 08:43:24
(UTC+02:00)

A-11 Canister half - Visible Passes

Search period start: 07 December 2023 00:00
Search period end: 17 December 2023 00:00
Orbit: 1525 x 1684 km, 47.3° (Epoch: 05 December)

Date Brightness Start Highest point End Pass type
(mag) Time Alt. Az. Time Alt. Az. Time Alt. Az.
07 Dec 9.2 17:20:24 10° SW 17:30:33 89° NW 17:39:50 14° NE visible
07 Dec 9.8 19:27:22 10° W 19:36:46 40° NNW 19:38:08 39° N visible
07 Dec 11.2 21:35:27 10° NW 21:36:26 13° NW 21:36:26 13° NW visible
08 Dec 9.2 16:58:38 10° SW 17:08:47 88° SE 17:19:00 10° NE visible
08 Dec 9.8 19:05:27 10° W 19:14:54 41° NNW 19:17:40 36° NNE visible
08 Dec 11.0 21:13:35 10° NW 21:15:57 17° NW 21:15:57 17° NW visible
09 Dec 9.8 18:43:31 10° W 18:53:02 43° NNW 18:57:10 31° NNE visible
09 Dec 10.7 20:51:42 10° WNW 20:55:28 22° NW 20:55:28 22° NW visible
10 Dec 9.8 18:21:38 10° W 18:31:11 44° NNW 18:36:40 25° NE visible
10 Dec 10.5 20:29:49 10° WNW 20:34:58 26° NNW 20:34:58 26° NNW visible
11 Dec 9.8 17:59:43 10° W 18:09:19 45° NNW 18:16:09 20° NE visible
11 Dec 10.2 20:07:56 10° WNW 20:14:26 30° NNW 20:14:26 30° NNW visible
12 Dec 9.8 17:37:49 10° W 17:47:28 47° NNW 17:55:36 15° NE visible
12 Dec 10.1 19:46:02 10° WNW 19:53:54 33° N 19:53:54 33° N visible
13 Dec 9.8 17:15:56 10° W 17:25:37 48° NNW 17:35:04 11° NE visible
13 Dec 10.0 19:24:09 10° WNW 19:33:05 33° N 19:33:21 33° N visible
13 Dec 11.2 21:30:41 10° NW 21:31:39 13° NW 21:31:39 13° NW visible
14 Dec 9.7 16:54:03 10° W 17:03:47 50° NNW 17:13:35 10° NE visible
14 Dec 9.9 19:02:15 10° WNW 19:11:11 33° N 19:12:49 32° NNE visible
14 Dec 10.9 21:08:53 10° NW 21:11:06 18° NW 21:11:06 18° NW visible
15 Dec 9.9 18:40:21 10° WNW 18:49:17 33° N 18:52:16 29° NNE visible
15 Dec 10.6 20:47:05 10° NW 20:50:34 23° NW 20:50:34 23° NW visible
16 Dec 10.0 18:18:27 10° WNW 18:27:23 33° N 18:31:45 25° NE visible
16 Dec 10.3 20:25:17 10° NW 20:30:02 29° NNW 20:30:02 29° NNW visible
